Home > Weather > Bilbao > Past weeks

Flag for Spain Weather for the Past 2 Weeks in Bilbao, Spain

Now
52 °F

Broken clouds.


Feels Like: 48 °F
Forecast: 50 / 65 °F
Wind: 10 mph from Northwest

Location: Bilbao / Sondica

Current Time: Feb 7, 2016 at 12:03:19 PM

Latest Report: Feb 7, 2016 at 11:30 AM


Visibility: N/A

Pressure: 30.04 "Hg

Humidity: 54%

Dew point: 36 °F

Location of BilbaoLocation

Historic Weather in Bilbao — Graph

°F

Bilbao Temperature Yesterday

Maximum temperature yesterday: 64 °F (at 3:00 PM)
Minimum temperature yesterday: 46 °F (at 12:00 AM)
Average temperature yesterday: 59 °F

High & Low Weather Summary for the Past Weeks

 TemperatureHumidityPressure
High72 °F (Jan 23, 4:00 PM)100% (Jan 23, 9:00 PM)30.72 "Hg (Jan 23, 9:00 PM)
Low37 °F (Jan 30, 6:00 AM)37% (Feb 6, 3:00 PM)29.68 "Hg (Feb 6, 6:30 PM)
Average55 °F75%30.38 "Hg
* Reported Jan 23 11:00 AM — Feb 7 11:00 AM, Bilbao, Weather by CustomWeather, © 2016

Note: Actual official high and low records may vary slightly from our data, if they occured in-between our weather recording intervals... More about our weather records

Advertising

Bilbao Weather History for the Previous 24 Hours

 ConditionsComfort  
Time TempWeatherWind HumidityBarometerVisibility
11:00 AM
Sun, Feb 7
52 °FBroken clouds.9 mph58%30.04 "HgN/A
10:30 AM50 °FBroken clouds.8 mph58%30.01 "HgN/A
10:00 AM50 °FBroken clouds.1 mph67%30.01 "HgN/A
9:30 AM46 °FScattered clouds.2 mph82%30.01 "HgN/A
9:00 AM46 °FScattered clouds.3 mph76%29.98 "HgN/A
8:30 AM46 °FScattered clouds.3 mph82%29.98 "HgN/A
8:00 AM46 °FPartly cloudy.8 mph82%29.95 "HgN/A
7:30 AM48 °FPartly cloudy.6 mph71%29.95 "HgN/A
7:00 AM46 °FPassing clouds.1 mph76%29.92 "HgN/A
6:30 AM46 °FPassing clouds.2 mph82%29.92 "HgN/A
6:00 AM46 °FPassing clouds.3 mph82%29.89 "HgN/A
5:30 AM48 °FPassing clouds.3 mph76%29.89 "HgN/A
5:00 AM46 °FPassing clouds.2 mph87%29.86 "HgN/A
12:30 AM46 °FLight rain. Partly cloudy.3 mph100%29.77 "HgN/A
12:00 AM46 °FRain. Partly cloudy.2 mph93%29.77 "HgN/A
11:30 PM
Sat, Feb 6
48 °FRain. Partly cloudy.5 mph87%29.77 "HgN/A
11:00 PM48 °FRain. Partly cloudy.13 mph87%29.77 "HgN/A
10:00 PM48 °FRain. Partly cloudy.16 mph94%29.77 "Hg4 mi
9:30 PM50 °FRain. Partly cloudy.20 mph88%29.77 "Hg4 mi
9:00 PM52 °FLight rain. Passing clouds.25 mph88%29.74 "HgN/A
8:30 PM64 °FPassing clouds.18 mph40%29.71 "HgN/A
8:00 PM64 °FPassing clouds.16 mph40%29.68 "HgN/A
7:30 PM64 °FPassing clouds.14 mph37%29.68 "HgN/A
7:00 PM64 °FPassing clouds.14 mph43%29.68 "HgN/A
6:30 PM64 °FPassing clouds.10 mph40%29.68 "HgN/A
6:00 PM64 °FPassing clouds.12 mph40%29.71 "HgN/A
5:30 PM64 °FPassing clouds.14 mph37%29.74 "HgN/A
5:00 PM64 °FPassing clouds.15 mph37%29.74 "HgN/A
4:30 PM63 °FPassing clouds.8 mph39%29.77 "HgN/A
4:00 PM63 °FPassing clouds.12 mph39%29.77 "HgN/A
3:30 PM63 °FPassing clouds.7 mph42%29.80 "HgN/A
3:00 PM64 °FPassing clouds.17 mph37%29.83 "HgN/A
2:30 PM63 °FPassing clouds.16 mph42%29.83 "HgN/A
2:00 PM63 °FPassing clouds.22 mph39%29.86 "HgN/A
1:30 PM63 °FPassing clouds.25 mph42%29.92 "HgN/A
1:00 PM63 °FPassing clouds.10 mph42%29.92 "HgN/A
12:30 PM63 °FPassing clouds.18 mph42%29.92 "HgN/A
12:00 PM61 °FPassing clouds.20 mph45%29.92 "HgN/A
Weather by CustomWeather, © 2016

See weather overviewHow to use our weather pages